AAL256 KSYR-KDCA

Flight info

Callsign AAL256
Flight time 1h 4m
Altitude 28000
Route SYR PTAKI STUBN PSB SKILS5
Aircraft A319/M-SDE3FGHIRWY/LB1

Departure

Time 2026-05-07 19:07
Airport Syracuse Hancock International Airport (KSYR)

Arrival

Time 2026-05-07 20:12
Airport Ronald Reagan Washington National Airport (KDCA)
Time Latitude Longitude Altitude Speed Heading
2026-05-07 18:45 43.11348 -76.10935 424 ft 0 kts 197°
2026-05-07 18:57 43.11353 -76.10933 424 ft 3 kts 196°
2026-05-07 18:58 43.11375 -76.10926 417 ft 3 kts 178°
2026-05-07 18:58 43.11394 -76.10932 424 ft 3 kts 129°
2026-05-07 18:58 43.11399 -76.10945 416 ft 0 kts 90°
2026-05-07 19:00 43.11399 -76.10942 415 ft 0 kts 90°
2026-05-07 19:00 43.11399 -76.10940 416 ft 1 kts 90°
2026-05-07 19:01 43.11399 -76.10932 418 ft 3 kts 90°
2026-05-07 19:01 43.11399 -76.10883 424 ft 8 kts 89°
2026-05-07 19:01 43.11402 -76.10791 424 ft 11 kts 87°
2026-05-07 19:01 43.11367 -76.10738 419 ft 9 kts 178°
2026-05-07 19:02 43.11305 -76.10734 419 ft 9 kts 177°
2026-05-07 19:02 43.11240 -76.10730 418 ft 10 kts 177°
2026-05-07 19:02 43.11172 -76.10725 421 ft 10 kts 177°
2026-05-07 19:02 43.11102 -76.10721 420 ft 10 kts 177°
2026-05-07 19:03 43.11030 -76.10714 425 ft 10 kts 165°
2026-05-07 19:03 43.11009 -76.10632 425 ft 10 kts 88°
2026-05-07 19:03 43.11013 -76.10521 424 ft 14 kts 86°
2026-05-07 19:03 43.11018 -76.10373 418 ft 17 kts 88°
2026-05-07 19:04 43.11024 -76.10189 424 ft 21 kts 88°
2026-05-07 19:04 43.11030 -76.09982 424 ft 22 kts 88°
2026-05-07 19:04 43.11037 -76.09775 425 ft 21 kts 87°
2026-05-07 19:04 43.11044 -76.09578 426 ft 21 kts 87°
2026-05-07 19:05 43.11051 -76.09380 425 ft 18 kts 87°
2026-05-07 19:05 43.11042 -76.09283 417 ft 9 kts 126°
2026-05-07 19:05 43.10993 -76.09264 427 ft 6 kts 181°
2026-05-07 19:05 43.10963 -76.09265 426 ft 4 kts 181°
2026-05-07 19:06 43.10937 -76.09272 426 ft 5 kts 212°
2026-05-07 19:06 43.10924 -76.09450 429 ft 32 kts 268°
2026-05-07 19:06 43.10904 -76.10104 425 ft 102 kts 268°
2026-05-07 19:07 43.10868 -76.11335 512 ft 146 kts 270°
2026-05-07 19:07 43.10832 -76.12688 1224 ft 140 kts 269°
2026-05-07 19:07 43.10817 -76.13994 1990 ft 136 kts 271°
2026-05-07 19:07 43.10785 -76.15303 2612 ft 139 kts 269°
2026-05-07 19:08 43.10728 -76.16622 3223 ft 139 kts 269°
2026-05-07 19:08 43.10667 -76.17969 3762 ft 150 kts 267°
2026-05-07 19:08 43.10597 -76.19528 3971 ft 183 kts 268°
2026-05-07 19:08 43.10522 -76.21456 4149 ft 218 kts 268°
2026-05-07 19:09 43.10442 -76.23641 4713 ft 239 kts 268°
2026-05-07 19:09 43.10387 -76.25194 5269 ft 245 kts 268°
2026-05-07 19:09 43.10312 -76.27553 6225 ft 250 kts 268°
2026-05-07 19:09 43.10157 -76.29926 7189 ft 253 kts 257°
2026-05-07 19:10 43.09365 -76.32081 8161 ft 259 kts 232°
2026-05-07 19:10 43.07912 -76.33570 9158 ft 268 kts 211°
2026-05-07 19:10 43.06211 -76.34637 10136 ft 270 kts 210°
2026-05-07 19:10 43.04433 -76.35739 10567 ft 292 kts 210°
2026-05-07 19:11 43.02513 -76.36933 10966 ft 311 kts 210°
2026-05-07 19:11 43.00518 -76.38167 11661 ft 318 kts 210°
2026-05-07 19:11 42.98485 -76.39416 12477 ft 322 kts 210°
2026-05-07 19:11 42.96429 -76.40681 13331 ft 325 kts 210°
2026-05-07 19:12 42.94361 -76.41956 14215 ft 328 kts 211°
2026-05-07 19:12 42.92275 -76.43249 15047 ft 330 kts 211°
2026-05-07 19:12 42.90173 -76.44558 15802 ft 332 kts 211°
2026-05-07 19:12 42.88064 -76.45875 16532 ft 335 kts 211°
2026-05-07 19:13 42.85936 -76.47200 17255 ft 337 kts 211°
2026-05-07 19:13 42.83796 -76.48530 17975 ft 340 kts 211°
2026-05-07 19:13 42.81636 -76.49868 18635 ft 341 kts 211°
2026-05-07 19:13 42.79474 -76.51202 19316 ft 342 kts 211°
2026-05-07 19:14 42.77303 -76.52540 19960 ft 343 kts 211°
2026-05-07 19:14 42.75127 -76.53888 20648 ft 344 kts 212°
2026-05-07 19:14 42.72953 -76.55237 21335 ft 344 kts 212°
2026-05-07 19:14 42.70772 -76.56588 22005 ft 345 kts 212°
2026-05-07 19:15 42.68583 -76.57937 22656 ft 346 kts 212°
2026-05-07 19:15 42.66385 -76.59289 23284 ft 347 kts 213°
2026-05-07 19:15 42.64200 -76.60747 23785 ft 344 kts 217°
2026-05-07 19:15 42.62115 -76.62347 24266 ft 345 kts 218°
2026-05-07 19:16 42.60021 -76.63956 24732 ft 346 kts 218°
2026-05-07 19:16 42.57921 -76.65576 25165 ft 348 kts 218°
2026-05-07 19:16 42.55810 -76.67205 25589 ft 350 kts 218°
2026-05-07 19:16 42.53681 -76.68844 26024 ft 352 kts 218°
2026-05-07 19:17 42.51542 -76.70485 26448 ft 355 kts 218°
2026-05-07 19:17 42.49387 -76.72132 26862 ft 357 kts 218°
2026-05-07 19:17 42.47222 -76.73782 27282 ft 358 kts 218°
2026-05-07 19:17 42.45038 -76.75444 27654 ft 361 kts 218°
2026-05-07 19:18 42.42847 -76.77114 27893 ft 363 kts 218°
2026-05-07 19:18 42.40679 -76.78761 27925 ft 353 kts 218°
2026-05-07 19:18 42.38542 -76.80379 27921 ft 349 kts 218°
2026-05-07 19:18 42.36431 -76.81982 27923 ft 348 kts 218°
2026-05-07 19:19 42.34325 -76.83589 27921 ft 347 kts 218°
2026-05-07 19:19 42.32222 -76.85192 27915 ft 348 kts 218°
2026-05-07 19:19 42.30107 -76.86803 27942 ft 349 kts 218°
2026-05-07 19:19 42.27999 -76.88408 27920 ft 347 kts 218°
2026-05-07 19:20 42.25898 -76.90003 27870 ft 347 kts 218°
2026-05-07 19:20 42.23793 -76.91604 27905 ft 348 kts 218°
2026-05-07 19:20 42.21678 -76.93208 27912 ft 349 kts 218°
2026-05-07 19:20 42.19557 -76.94809 27920 ft 349 kts 218°
2026-05-07 19:21 42.17435 -76.96411 27906 ft 349 kts 218°
2026-05-07 19:21 42.15311 -76.98012 27907 ft 349 kts 218°
2026-05-07 19:21 42.13195 -76.99610 27910 ft 349 kts 218°
2026-05-07 19:21 42.11078 -77.01210 27906 ft 349 kts 218°
2026-05-07 19:22 42.08937 -77.02830 27908 ft 348 kts 219°
2026-05-07 19:22 42.06885 -77.04470 27910 ft 347 kts 220°
2026-05-07 19:22 42.04841 -77.06184 27908 ft 346 kts 221°
2026-05-07 19:22 42.02785 -77.07940 27907 ft 345 kts 221°
2026-05-07 19:23 42.00759 -77.09672 27905 ft 345 kts 221°
2026-05-07 19:23 41.98726 -77.11400 27911 ft 345 kts 220°
2026-05-07 19:23 41.96694 -77.13115 27904 ft 345 kts 220°
2026-05-07 19:23 41.94654 -77.14828 27903 ft 345 kts 220°
2026-05-07 19:24 41.92617 -77.16531 27908 ft 346 kts 220°
2026-05-07 19:24 41.90574 -77.18232 27904 ft 346 kts 220°
2026-05-07 19:24 41.88529 -77.19933 27868 ft 346 kts 220°
2026-05-07 19:24 41.86480 -77.21638 27880 ft 347 kts 220°
2026-05-07 19:25 41.84428 -77.23348 27927 ft 347 kts 220°
2026-05-07 19:25 41.82380 -77.25055 27931 ft 347 kts 220°
2026-05-07 19:25 41.80328 -77.26762 27928 ft 347 kts 220°
2026-05-07 19:25 41.78273 -77.28467 27926 ft 347 kts 220°
2026-05-07 19:26 41.76230 -77.30165 27922 ft 346 kts 220°
2026-05-07 19:26 41.74180 -77.31867 27917 ft 346 kts 220°
2026-05-07 19:26 41.72135 -77.33557 27915 ft 345 kts 220°
2026-05-07 19:26 41.70090 -77.35247 27859 ft 346 kts 220°
2026-05-07 19:27 41.68046 -77.36938 27861 ft 346 kts 220°
2026-05-07 19:27 41.65998 -77.38629 27867 ft 346 kts 220°
2026-05-07 19:27 41.63948 -77.40325 27873 ft 347 kts 220°
2026-05-07 19:27 41.61894 -77.42024 27877 ft 347 kts 220°
2026-05-07 19:28 41.59839 -77.43722 27879 ft 347 kts 220°
2026-05-07 19:28 41.57779 -77.45417 27875 ft 348 kts 220°
2026-05-07 19:28 41.55714 -77.47108 27875 ft 348 kts 220°
2026-05-07 19:28 41.53652 -77.48795 27882 ft 348 kts 220°
2026-05-07 19:29 41.51564 -77.50510 27884 ft 348 kts 220°
2026-05-07 19:29 41.49499 -77.52210 27869 ft 350 kts 220°
2026-05-07 19:29 41.47424 -77.53916 27872 ft 350 kts 220°
2026-05-07 19:29 41.45349 -77.55621 27875 ft 351 kts 220°
2026-05-07 19:30 41.43269 -77.57324 27876 ft 351 kts 220°
2026-05-07 19:30 41.41188 -77.59022 27880 ft 351 kts 220°
2026-05-07 19:30 41.39107 -77.60720 27904 ft 350 kts 220°
2026-05-07 19:30 41.37036 -77.62416 27903 ft 350 kts 220°
2026-05-07 19:31 41.34960 -77.64111 27898 ft 349 kts 220°
2026-05-07 19:31 41.32887 -77.65800 27896 ft 349 kts 220°
2026-05-07 19:31 41.30817 -77.67489 27861 ft 349 kts 220°
2026-05-07 19:31 41.28744 -77.69181 27866 ft 350 kts 220°
2026-05-07 19:32 41.26669 -77.70871 27865 ft 350 kts 220°
2026-05-07 19:32 41.24586 -77.72567 27867 ft 351 kts 220°
2026-05-07 19:32 41.22504 -77.74262 27872 ft 351 kts 220°
2026-05-07 19:32 41.20421 -77.75956 27876 ft 351 kts 220°
2026-05-07 19:33 41.18338 -77.77652 27878 ft 351 kts 220°
2026-05-07 19:33 41.16255 -77.79347 27878 ft 351 kts 220°
2026-05-07 19:33 41.14171 -77.81037 27880 ft 351 kts 220°
2026-05-07 19:33 41.12087 -77.82728 27843 ft 352 kts 220°
2026-05-07 19:34 41.09992 -77.84425 27879 ft 354 kts 220°
2026-05-07 19:34 41.07889 -77.86128 27891 ft 354 kts 219°
2026-05-07 19:34 41.05786 -77.87831 27895 ft 354 kts 219°
2026-05-07 19:34 41.03688 -77.89530 27896 ft 354 kts 220°
2026-05-07 19:35 41.01589 -77.91227 27903 ft 354 kts 219°
2026-05-07 19:35 40.99481 -77.92925 27900 ft 354 kts 219°
2026-05-07 19:35 40.97382 -77.94616 27900 ft 354 kts 219°
2026-05-07 19:35 40.95119 -77.96011 27914 ft 368 kts 206°
2026-05-07 19:36 40.92487 -77.96534 27879 ft 389 kts 190°
2026-05-07 19:36 40.89744 -77.95952 27883 ft 414 kts 173°
2026-05-07 19:36 40.87116 -77.94132 27873 ft 442 kts 153°
2026-05-07 19:36 40.84738 -77.91494 27879 ft 448 kts 149°
2026-05-07 19:37 40.82386 -77.88795 27881 ft 449 kts 149°
2026-05-07 19:37 40.80032 -77.86075 27884 ft 450 kts 149°
2026-05-07 19:37 40.77679 -77.83360 27872 ft 450 kts 149°
2026-05-07 19:37 40.75315 -77.80646 27868 ft 450 kts 149°
2026-05-07 19:38 40.72950 -77.77945 27870 ft 450 kts 149°
2026-05-07 19:38 40.70580 -77.75254 27870 ft 450 kts 149°
2026-05-07 19:38 40.68207 -77.72571 27831 ft 450 kts 150°
2026-05-07 19:38 40.65820 -77.69876 27880 ft 452 kts 150°
2026-05-07 19:39 40.63432 -77.67179 27892 ft 453 kts 150°
2026-05-07 19:39 40.61045 -77.64475 27897 ft 453 kts 150°
2026-05-07 19:39 40.58654 -77.61767 27897 ft 453 kts 150°
2026-05-07 19:39 40.57071 -77.59977 27900 ft 453 kts 150°
2026-05-07 19:40 40.53878 -77.56368 27881 ft 452 kts 150°
2026-05-07 19:40 40.51499 -77.53683 27892 ft 451 kts 150°
2026-05-07 19:40 40.49118 -77.50998 27899 ft 451 kts 150°
2026-05-07 19:40 40.46739 -77.48321 27901 ft 450 kts 150°
2026-05-07 19:41 40.44363 -77.45646 27867 ft 450 kts 151°
2026-05-07 19:41 40.41987 -77.42976 27872 ft 449 kts 151°
2026-05-07 19:41 40.39612 -77.40313 27880 ft 449 kts 151°
2026-05-07 19:41 40.37234 -77.37652 27885 ft 449 kts 151°
2026-05-07 19:42 40.34862 -77.34995 27892 ft 449 kts 151°
2026-05-07 19:42 40.33255 -77.33194 27892 ft 449 kts 151°
2026-05-07 19:42 40.30882 -77.30539 27892 ft 449 kts 151°
2026-05-07 19:42 40.28507 -77.27889 27886 ft 449 kts 151°
2026-05-07 19:43 40.26126 -77.25230 27633 ft 449 kts 151°
2026-05-07 19:43 40.23753 -77.22579 27348 ft 448 kts 152°
2026-05-07 19:43 40.21390 -77.19944 27088 ft 445 kts 152°
2026-05-07 19:43 40.19042 -77.17328 26776 ft 442 kts 152°
2026-05-07 19:44 40.16709 -77.14730 26490 ft 438 kts 152°
2026-05-07 19:44 40.14395 -77.12154 25924 ft 435 kts 152°
2026-05-07 19:44 40.12095 -77.09601 25369 ft 432 kts 152°
2026-05-07 19:44 40.09843 -77.07105 24828 ft 430 kts 151°
2026-05-07 19:45 40.07533 -77.04547 24295 ft 427 kts 151°
2026-05-07 19:45 40.05275 -77.02048 23770 ft 425 kts 150°
2026-05-07 19:45 40.03023 -76.99558 23242 ft 423 kts 150°
2026-05-07 19:45 40.00789 -76.97088 22730 ft 419 kts 150°
2026-05-07 19:46 39.98573 -76.94637 22251 ft 416 kts 150°
2026-05-07 19:46 39.96376 -76.92213 21763 ft 413 kts 150°
2026-05-07 19:46 39.94188 -76.89806 21271 ft 410 kts 150°
2026-05-07 19:46 39.92018 -76.87421 20781 ft 407 kts 150°
2026-05-07 19:47 39.89857 -76.85046 20264 ft 405 kts 150°
2026-05-07 19:47 39.87707 -76.82686 19768 ft 403 kts 150°
2026-05-07 19:47 39.85568 -76.80339 19248 ft 402 kts 149°
2026-05-07 19:47 39.83435 -76.78000 18736 ft 401 kts 149°
2026-05-07 19:48 39.81307 -76.75667 18203 ft 400 kts 149°
2026-05-07 19:48 39.79182 -76.73337 17639 ft 398 kts 149°
2026-05-07 19:48 39.77081 -76.71029 17216 ft 393 kts 149°
2026-05-07 19:48 39.74976 -76.68722 16703 ft 390 kts 149°
2026-05-07 19:49 39.72933 -76.66493 16215 ft 386 kts 149°
2026-05-07 19:49 39.70807 -76.64352 15720 ft 375 kts 157°
2026-05-07 19:49 39.68526 -76.62884 15285 ft 357 kts 169°
2026-05-07 19:49 39.66179 -76.62087 14874 ft 341 kts 180°
2026-05-07 19:50 39.63866 -76.61911 14466 ft 328 kts 191°
2026-05-07 19:50 39.61613 -76.62114 14065 ft 322 kts 192°
2026-05-07 19:50 39.59396 -76.62316 13671 ft 318 kts 192°
2026-05-07 19:50 39.57204 -76.62511 13242 ft 314 kts 192°
2026-05-07 19:51 39.55043 -76.62703 12849 ft 309 kts 192°
2026-05-07 19:51 39.52909 -76.62896 12448 ft 305 kts 192°
2026-05-07 19:51 39.50806 -76.63086 12061 ft 301 kts 192°
2026-05-07 19:51 39.48708 -76.63274 11852 ft 306 kts 192°
2026-05-07 19:52 39.46559 -76.63473 11749 ft 311 kts 192°
2026-05-07 19:52 39.44395 -76.63671 11632 ft 313 kts 192°
2026-05-07 19:52 39.42226 -76.63867 11510 ft 313 kts 192°
2026-05-07 19:52 39.40055 -76.64064 11378 ft 312 kts 192°
2026-05-07 19:53 39.37891 -76.64258 11249 ft 312 kts 192°
2026-05-07 19:53 39.35726 -76.64451 11111 ft 312 kts 192°
2026-05-07 19:53 39.33557 -76.64646 10971 ft 312 kts 192°
2026-05-07 19:53 39.31389 -76.64842 10840 ft 313 kts 192°
2026-05-07 19:54 39.29221 -76.65038 10707 ft 313 kts 192°
2026-05-07 19:54 39.27046 -76.65235 10569 ft 311 kts 192°
2026-05-07 19:54 39.24952 -76.65414 10408 ft 291 kts 192°
2026-05-07 19:54 39.22982 -76.65578 10110 ft 278 kts 192°
2026-05-07 19:55 39.21022 -76.65755 9911 ft 277 kts 192°
2026-05-07 19:55 39.19106 -76.65957 9985 ft 277 kts 197°
2026-05-07 19:55 39.17293 -76.66616 9981 ft 266 kts 211°
2026-05-07 19:55 39.15722 -76.67800 9808 ft 258 kts 224°
2026-05-07 19:56 39.14406 -76.69338 9607 ft 255 kts 228°
2026-05-07 19:56 39.13104 -76.70897 9418 ft 255 kts 228°
2026-05-07 19:56 39.11795 -76.72450 9263 ft 257 kts 228°
2026-05-07 19:56 39.10479 -76.74006 9082 ft 257 kts 227°
2026-05-07 19:57 39.09158 -76.75569 8910 ft 259 kts 227°
2026-05-07 19:57 39.07833 -76.77134 8715 ft 260 kts 227°
2026-05-07 19:57 39.06499 -76.78708 8538 ft 261 kts 227°
2026-05-07 19:57 39.05160 -76.80291 8332 ft 262 kts 227°
2026-05-07 19:58 39.03826 -76.81867 8164 ft 259 kts 228°
2026-05-07 19:58 39.02509 -76.83418 8005 ft 252 kts 227°
2026-05-07 19:58 39.01228 -76.84922 7832 ft 249 kts 227°
2026-05-07 19:58 38.99954 -76.86422 7642 ft 248 kts 228°
2026-05-07 19:59 38.98689 -76.87944 7461 ft 251 kts 231°
2026-05-07 19:59 38.97736 -76.89789 7271 ft 247 kts 250°
2026-05-07 19:59 38.97312 -76.91906 7110 ft 244 kts 268°
2026-05-07 19:59 38.97346 -76.94086 6937 ft 244 kts 275°
2026-05-07 20:00 38.97426 -76.96267 6757 ft 246 kts 275°
2026-05-07 20:00 38.97504 -76.98466 6585 ft 246 kts 275°
2026-05-07 20:00 38.97619 -77.00657 6406 ft 245 kts 282°
2026-05-07 20:00 38.98150 -77.02752 6226 ft 243 kts 299°
2026-05-07 20:01 38.99126 -77.04514 6051 ft 243 kts 315°
2026-05-07 20:01 39.00341 -77.05984 5881 ft 244 kts 317°
2026-05-07 20:01 39.01578 -77.07473 5706 ft 244 kts 317°
2026-05-07 20:01 39.02819 -77.08974 5521 ft 245 kts 317°
2026-05-07 20:02 39.04073 -77.10497 5347 ft 245 kts 316°
2026-05-07 20:02 39.05301 -77.12014 5175 ft 244 kts 316°
2026-05-07 20:02 39.06516 -77.13536 5005 ft 244 kts 315°
2026-05-07 20:02 39.07730 -77.15057 4826 ft 244 kts 316°
2026-05-07 20:03 39.08955 -77.16591 4661 ft 247 kts 316°
2026-05-07 20:03 39.10188 -77.18133 4481 ft 248 kts 316°
2026-05-07 20:03 39.11420 -77.19671 4310 ft 247 kts 316°
2026-05-07 20:03 39.12656 -77.21212 4141 ft 247 kts 316°
2026-05-07 20:04 39.13767 -77.22876 3981 ft 246 kts 296°
2026-05-07 20:04 39.13995 -77.25024 3849 ft 247 kts 258°
2026-05-07 20:04 39.13127 -77.26913 3724 ft 252 kts 221°
2026-05-07 20:04 39.11537 -77.27731 3592 ft 247 kts 182°
2026-05-07 20:05 39.09945 -77.27163 3463 ft 236 kts 149°
2026-05-07 20:05 39.08630 -77.25936 3388 ft 233 kts 139°
2026-05-07 20:05 39.07393 -77.24602 3290 ft 228 kts 139°
2026-05-07 20:05 39.06190 -77.23362 3241 ft 217 kts 141°
2026-05-07 20:06 39.04992 -77.22227 3190 ft 209 kts 143°
2026-05-07 20:06 39.03832 -77.21205 3095 ft 195 kts 146°
2026-05-07 20:06 39.02704 -77.20259 3032 ft 189 kts 147°
2026-05-07 20:06 39.01603 -77.19361 2971 ft 187 kts 147°
2026-05-07 20:07 39.00504 -77.18483 2907 ft 186 kts 148°
2026-05-07 20:07 38.99406 -77.17616 2843 ft 185 kts 148°
2026-05-07 20:07 38.98312 -77.16759 2789 ft 184 kts 148°
2026-05-07 20:07 38.97222 -77.15909 2720 ft 183 kts 148°
2026-05-07 20:08 38.96171 -77.14993 2651 ft 183 kts 139°
2026-05-07 20:08 38.95216 -77.13910 2403 ft 182 kts 139°
2026-05-07 20:08 38.94260 -77.12843 2171 ft 182 kts 139°
2026-05-07 20:08 38.93285 -77.11818 1948 ft 180 kts 147°
2026-05-07 20:09 38.92173 -77.11091 1724 ft 176 kts 154°
2026-05-07 20:09 38.91179 -77.10275 1494 ft 163 kts 136°
2026-05-07 20:09 38.90601 -77.09113 1282 ft 148 kts 110°
2026-05-07 20:10 38.89780 -77.06866 896 ft 136 kts 134°
2026-05-07 20:10 38.89137 -77.05990 730 ft 133 kts 134°
2026-05-07 20:10 38.88509 -77.05128 564 ft 132 kts 135°
2026-05-07 20:10 38.87853 -77.04323 363 ft 129 kts 149°
2026-05-07 20:11 38.87021 -77.03969 177 ft 126 kts 176°
2026-05-07 20:11 38.86149 -77.03874 60 ft 125 kts 176°
2026-05-07 20:11 38.85372 -77.03792 24 ft 82 kts 175°
2026-05-07 20:11 38.84952 -77.03755 24 ft 54 kts 176°
2026-05-07 20:12 38.84594 -77.03723 24 ft 49 kts 175°
2026-05-07 20:12 38.84400 -77.03748 26 ft 17 kts 242°
2026-05-07 20:12 38.84431 -77.03845 25 ft 12 kts 349°
2026-05-07 20:12 38.84515 -77.03856 24 ft 13 kts 353°
2026-05-07 20:13 38.84605 -77.03864 25 ft 13 kts 358°
2026-05-07 20:13 38.84666 -77.03868 27 ft 13 kts 356°
2026-05-07 20:13 38.84761 -77.03879 24 ft 14 kts 354°
2026-05-07 20:13 38.84861 -77.03890 24 ft 11 kts 352°
2026-05-07 20:14 38.84897 -77.03949 24 ft 9 kts 336°
2026-05-07 20:14 38.84966 -77.03959 24 ft 11 kts 354°
2026-05-07 20:14 38.85050 -77.03967 24 ft 13 kts 355°
2026-05-07 20:14 38.85140 -77.03977 24 ft 13 kts 354°
2026-05-07 20:15 38.85233 -77.03986 24 ft 14 kts 357°
2026-05-07 20:15 38.85330 -77.03995 24 ft 14 kts 356°
2026-05-07 20:15 38.85431 -77.04005 24 ft 15 kts 355°
2026-05-07 20:15 38.85520 -77.04022 24 ft 10 kts 334°
2026-05-07 20:16 38.85534 -77.04102 24 ft 10 kts 253°
2026-05-07 20:16 38.85516 -77.04179 24 ft 5 kts 263°
2026-05-07 20:16 38.85538 -77.04208 25 ft 4 kts 335°
2026-05-07 20:16 38.85551 -77.04215 24 ft 2 kts 336°
2026-05-07 20:17 38.85559 -77.04219 27 ft 0 kts 337°